星链-32246 (STARLINK-32246)

导读 | 豆包AI

STARLINK-32246是美国SpaceX公司于2024年8月12日发射的星链系列卫星,属于星链低轨互联网卫星星座的组成部分。星链星座通过在近地轨道部署大量卫星,旨在为全球提供高速低延迟宽带互联网服务,填补传统基础设施覆盖盲区,STARLINK-32246也将助力星座扩容,进一步完善全球网络覆盖能力。

基本信息
目录编号:
60432
目录名称:
STARLINK-32246
国际标识:
2024-144H
轨道中心:
EARTH
卫星名称:
星链-32246 (STARLINK-32246)
卫星全名:
星链-32246 (STARLINK-32246)
卫星状态:
在轨 (已飞行580 天)
发射日期:
2024-08-12 UTC
国别 :
美国 (US)
星等 :
--
轨道信息
数据来源 国际轨道数据
星历时间: 2026-03-15T02:06:37+0800
20小时前
查看轨道信息
半长轴: 6853.271km
偏心率: 0.0000936
轨道倾角: 53.160°
近地点辐角 74.095°
升交点赤经 193.676°
平近点角 286.015°
近地点: 474.492km
远地点: 475.776km
周期: 94.104分钟
每日圈数: 15.302274
详细信息
卫星平台:
Starlink v2.0 mini
运营商:
太空探索技术公司
运营商所在国:
美国
制造商(研发单位):
太空探索技术公司
制造商所在国:
美国
使用方式:
暂无
卫星简介
星链(Starlink)计划是由太空探索技术公司(SpaceX)提出的一个巨型低轨卫星互联网星座项目,计划在2019年至2024年间在太空搭建由约1.2万颗卫星组成的“星链”网络,其中1584颗将部署在地球上空550千米处的近地轨道,并从2020年开始工作。该卫星仍在工作。
2D轨道图
3D轨道图
轨道高度分析图
轨道倾角分析图
轨道综合分析图
查看轨道综合分析图